Regional Weather Roundup
Issued by NWS Upton, NY

Current Version | Previous Version | Graphics & Text | Print | Product List | Glossary Off
Versions: 1 2 3 4 5 6 7 8 9 10 11 12 13 14 15 16 17 18 19 20 21 22 23 24 25 26 27 28 29 30 31 32 33 34 35 36 37 38 39 40 41 42 43 44 45 46 47 48 49 50

000
ASUS41 KOKX 290208
RWROKX

REGIONAL WEATHER ROUNDUP
NATIONAL WEATHER SERVICE NEW YORK NY
1000 PM EDT TUE JUL 28 2015

NOTE: "FAIR" INDICATES FEW OR NO CLOUDS BELOW 12,000 FEET WITH NO
SIGNIFICANT WEATHER AND/OR OBSTRUCTIONS TO VISIBILITY.

NYZ071-072-176-178-NJZ106-104-290300-
NEW YORK CITY METRO AREA


CITY           SKY/WX    TMP DP  RH WIND       PRES   REMARKS
CENTRAL PARK   CLEAR     84  68  58 VRB6      30.00R
LAGUARDIA APRT PTCLDY    85  65  51 S8        29.97R
KENNEDY INTL   PTCLDY    80  69  69 SW5       29.99R
NEWARK/LIBERTY PTCLDY    83  72  69 S6        29.97R
BRNX BOT. GARD   N/A     79  63  57 E2        29.99S
TETERBORO      CLEAR     84  68  58 S6        29.95R
$$

NYZ177-179-078>081-290300-
LONG ISLAND NEW YORK

CITY           SKY/WX    TMP DP  RH WIND       PRES   REMARKS
FARMINGDALE    CLEAR     79  71  76 SW6       29.99R
ISLIP          PTCLDY    77  72  84 SW7       29.97R
SHIRLEY        CLEAR     77  72  84 SW6       29.99R
WESTHAMPTON    CLEAR     76  74  93 SW7       30.00R
MONTAUK POINT    N/A     76  71  85 CALM      29.98R
$$

NYZ052-065-067-290300-
HUDSON VALLEY

CITY           SKY/WX    TMP DP  RH WIND       PRES   REMARKS
WHITE PLAINS   PTCLDY    77  68  73 S5        29.98S
NEWBURGH       NOT AVBL
MONTGOMERY     CLEAR     76  68  76 CALM      29.98R
POUGHKEEPSIE   PTCLDY    79  69  71 CALM      29.96R
ALBANY         MOCLDY    78  67  68 CALM      29.97R
$$

NJZ001-105-106-008-010-013-015-019>022-104-290300-
NEW JERSEY

CITY           SKY/WX    TMP DP  RH WIND       PRES   REMARKS
NEWARK/LIBERTY PTCLDY    83  72  69 S6        29.97R
TETERBORO      CLEAR     84  68  58 S6        29.95R
CALDWELL       CLEAR     81  63  54 CALM      29.98R
MORRISTOWN     PTCLDY    72  64  78 CALM      29.98R
SOMERVILLE     CLEAR     73  66  78 CALM      29.96R
SUSSEX         CLEAR     72  68  87 CALM      30.00S
ANDOVER          N/A     71  69  93 CALM      30.01R
TRENTON        CLEAR     79  70  74 S6        29.98R
MILLVILLE      PTCLDY    76  71  85 W3        29.99S
ATLANTIC CITY  CLEAR     77  73  87 SW5       29.99R
WRIGHTSTOWN    CLEAR     75  71  88 SE1       29.97R
TOMS RIVER     CLEAR     75  72  88 CALM      29.99S
BELMAR         CLEAR     79  70  73 SW6       29.99R
$$

PAZ047>061-062-071-290300-
EASTERN PENNSYLVANIA

CITY           SKY/WX    TMP DP  RH WIND       PRES   REMARKS
PHILADELPHIA   PTCLDY    82  71  69 SW6       30.00R
ALLENTOWN      CLEAR     77  67  71 CALM      29.99R
SCRANTON       CLEAR     77  65  66 SE6       30.02R
$$

CTZ002-004>006-009-010-012-RIZ004-006-007-MAZ004-011-015-290300-
SOUTHERN NEW ENGLAND
 IN CT

CITY           SKY/WX    TMP DP  RH WIND       PRES   REMARKS
BRADLEY INTL   MOCLDY    77  68  73 CALM      29.96R
HARTFORD       CLEAR     80  66  62 CALM      29.95R
DANBURY        CLEAR     73  65  75 CALM      30.00R
WTRBRY/OXFORD  CLEAR     73  64  73 CALM      30.02S
BRIDGEPORT     CLEAR     80  73  79 SW6       29.97R
MERIDEN        CLEAR     75  67  76 CALM      29.97R
NEW HAVEN      CLEAR     78  71  79 VRB5      29.97R
CHESTER        FAIR      75  72  88 CALM      29.99R
GROTON         CLEAR     74  70  87 CALM      29.96R
WILLIMANTIC    CLEAR     77  72  84 N3        29.97R

 IN RI

CITY           SKY/WX    TMP DP  RH WIND       PRES   REMARKS
PROVIDENCE     PTCLDY    72  68  87 E5        29.97S
BLOCK ISLAND   PTCLDY    73  72  94 SW12      29.98R
WESTERLY       PTCLDY    72  70  93 CALM      29.97R

 IN MA

CITY           SKY/WX    TMP DP  RH WIND       PRES   REMARKS
BOSTON         PTCLDY    76  69  79 SW5       29.96S
WORCESTER      CLEAR     72  66  81 CALM      30.01R
WESTFIELD      CLEAR     73  70  90 CALM      29.97R
PROVINCETOWN   PTCLDY    70  63  78 CALM      29.97S
NANTUCKET      FOG       72  71  97 SW9       29.98R VSB 1/4
$$

ANZ330-335-338-340-345-350-353-355-290300-
COASTAL MARINE OBSERVATIONS


STATION/POSITION TIME  SKY/WX   TEMP    WIND        PRES    VSBY  WAVE
                                AIR SEA DIR/SP/G                  HT/PER
                 (UTC)          (F)     (DEG/KT/KT) (MB)    (MI)  (FT/S)
NY HARB ENTRANCE 0150            78 76  220/ 10/ 12 1014.8          2/11
4S FIRE IS       NOT AVBL
20S FIRE ISLAND  0150            76 74  240/ 10/ 12 1015.0          2/ 9
GREAT SOUTH BAY  0100            78 81  260/ 10/ 12   N/A
23SW MTP         0150            75 75  240/  8/ 10 1014.9          2/10
HUDSON CANYON    NOT AVBL
KINGS POINT      0100            81 70  180/  4/  6 1014.1
CENTRAL LI SOUND NOT AVBL
EASTERN LI SOUND 0100            73 69  100/  4/  6   N/A
ROBBINS REEF     0100            82     160/ 11/ 11 1013.5
$$


>>>>>>>>>>>>>>>>>>>>>>>>>>>> KEY <<<<<<<<<<<<<<<<<<<<<<<<<<<
>                                                          <
>     SKY/WX - SKY CONDITION/PRESENT WEATHER               <
>     TMP    - TEMPERATURE IN FAHRENHEIT                   <
>     DP     - DEWPOINT IN FAHRENHEIT                      <
>     RH     - RELATIVE HUMIDITY IN PERCENT                <
>     WIND   - DIRECTION AND SPEED IN MPH                  <
>     PRES   - MEAN SEA LEVEL PRESSURE IN INCHES OF HG     <
>     WCI    - WIND CHILL INDEX                            <
>     VSB    - VISIBILITY IN MILES                         <
>     HX     - HEAT INDEX                                  <
>     TC     - TEMPERATURE IN CELSIUS                      <
>     VRB    - VARIABLE WIND DIRECTION                     <
>                                                          <
>>>>>>>>>>>>>>>>>>>>>>>>>>>> KEY <<<<<<<<<<<<<<<<<<<<<<<<<<<





USA.gov is the U.S. government's official web portal to all federal, state and local government web resources and services.